Hourly Data Report for October 23, 2021

OTTAWA INTL A
ONTARIO
Current Station Operator: NAVCAN

45°19'00.000" N
75°40'00.000" W
114.90 m
6106001
71628
YOW

Download Data

Hourly Data (October 2021)
Hourly Data Report for October 23, 2021
TIME
LST
Temp Definition
°C
Dew Point Definition
°C
Rel Hum Definition
%
Precip. Amount Definition
mm

Wind Dir Definition
10's deg

Wind Spd Definition
km/h
Visibility Definition
km
Stn Press Definition
kPa
Hmdx Definition


Wind Chill Definition


Weather Definition


00:00 0.3 -1.0 91   31 9 24.1 100.26     LegendNANA
01:00 -0.1 -2.1 86   34 7 24.1 100.26   -3 Mostly Cloudy
02:00 1.0 -1.1 86   35 7 24.1 100.24     LegendNANA
03:00 0.9 -1.2 85   35 11 24.1 100.21     LegendNANA
04:00 0.6 -1.1 88   36 11 24.1 100.23     Mostly Cloudy
05:00 0.6 -1.2 88   36 9 24.1 100.27     LegendNANA
06:00 0.6 -1.0 88   36 9 24.1 100.29     LegendNANA
07:00 0.8 -1.4 85   36 9 24.1 100.32     Mostly Cloudy
08:00 1.8 -1.2 80   2 12 24.1 100.33     LegendNANA
09:00 3.6 -1.2 70   4 8 24.1 100.32     LegendNANA
10:00 4.8 -1.4 65   32 4 24.1 100.28     Mostly Cloudy
11:00 5.2 -1.9 60   28 10 24.1 100.29     LegendNANA
12:00 6.6 -1.6 56   33 14 24.1 100.23     LegendNANA
13:00 6.9 -0.9 58   34 8 24.1 100.15     Mostly Cloudy
14:00 8.4 -1.7 49   34 18 24.1 100.13     LegendNANA
15:00 8.2 -2.7 46   30 7 24.1 100.11     LegendNANA
16:00 7.2 -1.3 55   27 10 24.1 100.16     Mostly Cloudy
17:00 5.8 -1.0 62   27 11 24.1 100.20     LegendNANA
18:00 4.6 -1.2 66   27 9 24.1 100.25     LegendNANA
19:00 3.9 -0.4 73   26 9 24.1 100.28     Mostly Cloudy
20:00 4.1 0.8 79   36 2 24.1 100.27     LegendNANA
21:00 3.6 1.2 84   16 5 24.1 100.31     LegendNANA
22:00 3.5 -0.2 77   18 4 24.1 100.30     Mostly Cloudy
23:00 3.5 0.9 84   20 8 24.1 100.30     LegendNANA

Notes on Data Quality.

Legend

  • E = Estimated
  • M = Missing
  • NA = Not Available*
  • [empty] = Indicates an unobserved value
Date modified: